Cleveland Burke, OH

12:11 PM EDT on October 22, 2017 (GMT -0400)
Burke Lakefront

Weather History for KBKL - January, 2002

Change the Weather History Date:

Saturday, January 12, 2002

  Actual Average Record
Temperature  
Mean Temperature 38 °F -  
Max Temperature 44 °F 32 °F 68 °F (2005)
Min Temperature 32 °F 21 °F 5 °F (1997)
Degree Days  
Heating Degree Days 27    
Moisture  
Dew Point 29 °F    
Average Humidity 72    
Maximum Humidity 89    
Minimum Humidity 53    
Precipitation  
Precipitation 0.05 in - - ()
Sea Level Pressure  
Sea Level Pressure 29.71 in    
Wind  
Wind Speed 17 mph (SSW)    
Max Wind Speed 26 mph    
Max Gust Speed 36 mph    
Visibility 8 miles    
Events Rain    
Averages and records for this station are not official NWS values.
T = Trace of Precipitation, MM = Missing Value Source: NWS Daily Summary

Daily Weather History Graph

Daily Weather History Graph

Search for Another Location

Airport or City:

Trip Planner

Search our weather history database for the weather conditions in past years. The results will help you decide how hot, cold, wet, or windy it might be!

Date:

Astronomy

Jan. 12, 2002 Rise Set
Actual Time 7:52 AM EST 5:18 PM EST
Civil Twilight 7:21 AM EST 5:49 PM EST
Nautical Twilight 6:46 AM EST 6:23 PM EST
Astronomical Twilight 6:13 AM EST 6:56 PM EST
Moon 7:18 AM EST (1/12) 4:28 PM EST (1/12)
Length of Visible Light 10h 27m
Length of Day
9h 26m
Waning Crescent, 1% of the Moon is Illuminated
Jan 12
Waning Crescent
Jan 13
New
Jan 21
First Quarter
Jan 28
Full
Feb 4
Last Quarter

Hourly Weather History & Observations

Time (EST) Temp. Windchill Dew Point Humidity Pressure Visibility Wind Dir Wind Speed Gust Speed Precip Events Conditions
12:53 AM 32.0 °F 21.2 °F 26.1 °F 79% 30.01 in 8.0 mi SSW 16.1 mph - N/A   Clear
1:53 AM 33.1 °F 22.2 °F 27.0 °F 78% 29.99 in 9.0 mi SSW 17.3 mph 31.1 mph N/A   Clear
2:53 AM 33.1 °F 23.4 °F 27.0 °F 78% 29.99 in 8.0 mi SSW 13.8 mph - N/A   Clear
3:53 AM 33.1 °F 23.0 °F 27.0 °F 78% 29.96 in 7.0 mi South 15.0 mph 20.7 mph N/A   Clear
4:53 AM 32.0 °F 22.5 °F 27.0 °F 82% 29.95 in 7.0 mi SSW 12.7 mph - N/A   Clear
5:53 AM 32.0 °F 22.5 °F 27.0 °F 82% 29.93 in 7.0 mi South 12.7 mph - N/A   Clear
6:53 AM 32.0 °F 22.1 °F 27.0 °F 82% 29.92 in 7.0 mi South 13.8 mph 19.6 mph N/A   Clear
7:53 AM 33.1 °F 23.9 °F 27.0 °F 78% 29.89 in 6.0 mi South 12.7 mph - N/A   Haze
8:53 AM 33.1 °F 21.9 °F 27.0 °F 78% 29.88 in 6.0 mi South 18.4 mph 23.0 mph N/A   Haze
9:53 AM 36.0 °F 26.0 °F 27.0 °F 70% 29.86 in 6.0 mi South 17.3 mph 23.0 mph N/A   Haze
10:53 AM 39.0 °F 29.9 °F 28.0 °F 65% 29.83 in 7.0 mi SSW 17.3 mph 24.2 mph N/A   Clear
11:53 AM 41.0 °F 32.8 °F 28.9 °F 62% 29.78 in 8.0 mi South 16.1 mph 23.0 mph N/A   Clear
12:53 PM 44.1 °F 36.5 °F 28.9 °F 55% 29.72 in 6.0 mi South 17.3 mph 26.5 mph N/A   Haze
1:53 PM 43.0 °F 34.8 °F 28.0 °F 56% 29.68 in 10.0 mi South 18.4 mph 27.6 mph N/A   Clear
2:53 PM 44.1 °F 36.5 °F 28.0 °F 53% 29.64 in 10.0 mi South 17.3 mph 24.2 mph N/A   Clear
3:53 PM 44.1 °F 36.8 °F 28.0 °F 53% 29.61 in 10.0 mi South 16.1 mph - N/A   Clear
4:53 PM 43.0 °F 36.0 °F 27.0 °F 53% 29.60 in 10.0 mi South 13.8 mph 27.6 mph N/A   Mostly Cloudy
5:18 PM 42.8 °F 33.5 °F 26.6 °F 53% 29.58 in 1.2 mi SSW 23.0 mph 29.9 mph N/A   Haze
5:28 PM 42.8 °F 35.1 °F 26.6 °F 53% 29.58 in 10.0 mi South 16.1 mph 24.2 mph N/A   Overcast
5:53 PM 43.0 °F 33.5 °F 27.0 °F 53% 29.59 in 10.0 mi SSW 24.2 mph 31.1 mph N/A   Overcast
6:53 PM 42.1 °F 33.6 °F 28.0 °F 58% 29.58 in 10.0 mi SSW 18.4 mph 26.5 mph N/A   Overcast
7:07 PM 41.0 °F 30.7 °F 28.4 °F 61% 29.57 in 10.0 mi SW 25.3 mph 35.7 mph 0.00 in Rain Light Rain
7:53 PM 37.0 °F 26.2 °F 32.0 °F 82% 29.59 in 5.0 mi SW 21.9 mph - 0.02 in Rain Light Rain
8:12 PM 37.4 °F 27.5 °F 32.0 °F 81% 29.58 in 6.0 mi WSW 18.4 mph - 0.01 in Rain Light Rain
8:45 PM 35.6 °F 24.0 °F 32.0 °F 87% 29.58 in 8.0 mi WSW 23.0 mph - 0.02 in Rain Light Rain
8:53 PM 35.1 °F 23.8 °F 32.0 °F 89% 29.59 in 8.0 mi WSW 20.7 mph - 0.02 in Rain Light Rain
9:20 PM 35.6 °F 24.5 °F 32.0 °F 87% 29.57 in 10.0 mi WSW 20.7 mph - 0.01 in   Overcast
9:53 PM 35.1 °F 22.5 °F 30.9 °F 85% 29.59 in 10.0 mi WSW 26.5 mph - 0.01 in   Overcast
10:33 PM 35.6 °F 24.0 °F 30.2 °F 81% 29.57 in 10.0 mi WSW 23.0 mph 28.8 mph N/A   Scattered Clouds
10:43 PM 35.6 °F 24.5 °F 30.2 °F 81% 29.57 in 10.0 mi WSW 20.7 mph - N/A   Mostly Cloudy
10:53 PM 34.0 °F 21.8 °F 30.0 °F 85% 29.58 in 10.0 mi WSW 23.0 mph - N/A   Mostly Cloudy
11:10 PM 33.8 °F 21.9 °F 30.2 °F 87% 29.58 in 10.0 mi WSW 21.9 mph - N/A   Partly Cloudy
11:53 PM 34.0 °F 22.4 °F 30.0 °F 85% 29.60 in 10.0 mi West 20.7 mph - N/A   Mostly Cloudy